Theta_e
337 330 334 331 317 314 316 318 318 319 322 323 323 325 325 325 324 323 321 320 321 321 322 323 324 324 322 320 320 319 318 319 319 320 319 319 320 319 319 319 318 316 314
336 332 330 330 318 314 316 318 318 319 323 325 326 326 327 328 326 325 323 323 321 321 321 323 324 325 326 323 321 321 320 321 322 321 321 320 320 319 320 320 319 318 316
334 337 325 327 317 314 317 319 319 322 326 327 327 327 328 328 327 326 323 323 323 323 323 322 323 324 325 326 325 322 325 323 325 326 324 323 322 321 319 320 320 320 318
336 336 326 326 317 314 318 319 319 322 326 327 328 328 328 327 325 324 324 324 324 323 324 324 324 324 326 327 327 328 328 328 327 327 325 324 324 322 322 321 320 320 320
335 337 328 325 318 315 318 320 323 325 327 327 328 327 326 324 324 325 326 326 325 325 324 324 324 324 325 325 325 326 327 327 327 327 326 326 324 323 322 321 320 320 320
334 336 331 327 319 316 319 322 323 325 326 328 327 327 327 326 328 328 326 326 326 326 325 325 325 324 324 325 325 327 327 327 326 326 324 324 324 322 319 318 318 318 319
332 336 333 327 322 317 319 322 324 326 327 327 327 328 330 330 329 327 325 325 326 326 326 325 326 326 325 325 326 326 326 326 325 325 325 323 323 322 320 319 318 317 316
332 335 335 326 324 318 320 322 324 326 327 327 326 328 331 329 328 327 327 326 327 327 326 326 326 326 326 326 326 326 326 325 325 324 321 322 322 321 320 320 320 318 318
334 335 334 328 326 320 320 322 324 325 325 325 326 328 328 327 327 328 328 329 328 326 326 325 325 325 325 325 325 325 325 325 321 320 320 319 321 321 321 321 321 319 319
333 334 330 325 326 324 321 324 325 325 324 323 328 329 327 327 328 329 329 329 328 327 326 325 324 324 323 322 323 324 322 320 319 319 319 319 319 320 321 321 321 320 319
329 332 329 331 329 327 322 327 326 328 325 323 323 328 329 328 329 327 328 328 328 327 325 322 324 324 323 320 320 321 320 319 319 318 318 319 319 319 321 319 319 318 318
329 329 328 327 326 326 324 327 327 329 326 323 322 327 328 327 328 326 325 325 327 326 324 321 322 321 320 318 317 319 319 318 315 313 313 315 317 318 319 319 319 318 318
329 329 330 330 328 331 328 328 328 330 327 322 323 328 329 327 327 327 325 325 326 325 322 320 320 318 317 314 315 314 314 313 312 311 310 311 312 315 318 318 318 316 317
330 330 330 330 328 329 330 328 328 330 328 322 324 327 329 328 330 327 325 326 325 324 321 320 319 318 314 314 314 314 312 311 310 310 310 310 310 312 317 317 317 316 315
329 330 330 330 329 329 330 330 331 332 326 323 326 329 329 330 328 326 326 326 325 324 322 319 319 316 313 314 314 312 311 310 309 309 309 309 309 312 315 315 315 316 314
330 329 329 330 330 329 329 331 331 330 324 326 329 331 329 329 326 325 325 327 324 323 321 319 318 313 313 313 312 311 309 309 309 309 309 310 311 310 312 314 315 315 314
330 330 330 329 329 329 330 331 330 326 325 327 330 331 329 326 325 326 324 326 323 322 319 319 314 312 312 312 311 310 309 309 308 308 308 309 309 309 311 311 312 313 312
327 324 326 328 329 329 329 330 328 324 327 328 331 330 328 324 325 325 323 320 321 320 318 316 311 311 311 311 310 309 308 308 307 306 306 306 309 310 311 310 311 311 311
325 327 327 329 329 329 329 327 324 323 323 326 330 329 324 325 325 325 322 321 320 319 318 312 311 310 310 309 309 308 307 307 306 305 305 305 305 307 309 308 310 310 310
324 323 322 322 325 327 327 325 323 323 324 323 323 325 324 323 323 323 322 321 320 319 315 313 310 310 309 309 309 307 307 306 305 305 304 304 305 307 307 307 308 308 309
325 325 323 324 325 325 324 325 324 324 322 322 321 324 325 323 324 324 322 321 320 316 311 312 310 309 309 309 308 307 306 306 305 305 305 304 305 306 306 306 307 307 307
326 326 326 325 325 324 324 324 323 322 322 321 321 323 324 323 322 322 322 321 318 315 314 311 309 309 309 308 307 306 306 305 305 304 304 303 304 305 306 306 306 306 307
324 323 324 324 323 322 321 322 321 321 322 322 322 324 323 323 323 322 322 321 318 316 311 309 308 309 308 307 307 306 306 305 304 303 303 303 302 303 304 305 306 306 305
323 323 324 324 323 323 322 322 322 322 322 322 323 324 323 323 322 320 316 318 314 310 309 308 308 308 307 306 305 305 304 304 303 302 302 302 302 302 302 304 304 305 304
320 321 322 322 322 321 318 320 320 320 318 318 317 318 316 316 315 314 312 311 309 308 308 307 307 306 305 305 305 304 303 302 302 302 301 301 301 302 302 302 303 304 304
317 317 317 318 318 317 318 319 318 317 316 315 313 314 314 312 310 308 307 307 307 308 306 305 306 304 303 303 303 302 301 301 300 301 300 299 300 299 300 301 301 302 303
Wind_Speed
31 31 29 27 26 26 25 24 23 22 18 15 13 10 7 6 5 3 2 1 1 1 1 2 2 3 4 5 5 6 6 7 8 9 10 11 11 11 11 11 11 12 13
33 33 33 30 29 28 27 25 24 23 20 16 13 11 8 5 4 2 2 1 1 1 1 2 3 4 4 5 5 6 6 6 8 9 10 11 12 12 11 10 10 10 11
36 35 34 33 32 31 29 27 26 24 21 18 14 11 9 6 5 4 3 3 2 2 2 3 4 5 5 5 6 6 6 7 9 9 10 11 12 12 11 11 11 11 10
39 36 34 35 34 33 32 30 28 26 22 18 16 12 9 9 8 6 5 4 3 3 2 4 4 5 7 8 9 10 10 10 10 10 11 10 11 12 12 10 10 11 11
40 37 36 36 37 37 36 33 30 27 24 20 16 13 11 10 9 8 7 6 5 5 5 5 5 6 7 8 9 10 9 10 10 9 12 13 14 13 11 11 10 11 10
42 39 38 38 39 39 38 35 31 28 24 19 18 16 13 12 12 10 10 9 8 8 8 7 6 7 9 9 10 10 10 9 11 12 12 12 11 9 8 9 10 11 11
45 43 41 40 41 43 41 37 33 29 26 23 20 17 16 15 14 13 11 11 10 9 9 9 9 8 9 11 12 11 11 12 13 10 12 9 9 8 9 11 10 10 10
47 48 45 43 44 44 43 40 36 33 27 27 25 20 13 17 17 15 14 12 11 10 9 11 11 10 9 11 13 13 13 11 11 12 7 6 6 8 11 12 11 10 10
47 49 48 45 43 45 45 43 39 35 33 30 27 18 9 11 18 18 16 14 12 11 9 11 12 11 11 11 11 9 10 10 9 7 4 5 7 10 10 11 12 11 10
41 55 51 48 46 49 46 43 40 36 33 33 31 29 16 9 12 12 19 17 14 12 11 12 11 9 8 8 8 8 8 7 7 8 9 10 10 10 11 12 13 12 12
48 51 46 46 43 46 48 45 43 37 35 34 34 32 28 17 14 9 12 18 17 14 13 13 12 10 10 9 9 10 9 9 10 12 14 15 14 12 12 15 14 12 11
49 50 50 47 42 46 50 46 42 38 36 35 34 33 32 26 21 18 14 14 15 15 14 12 11 11 11 11 12 11 12 13 13 13 14 14 14 12 12 14 13 13 12
52 53 57 51 50 54 49 47 42 38 36 36 34 33 30 28 23 20 18 14 14 16 16 13 13 13 11 12 11 11 10 11 13 15 16 16 15 12 13 15 13 13 12
54 57 57 54 49 53 46 48 42 38 36 36 34 33 30 28 26 23 20 19 15 16 17 15 13 13 14 13 13 12 14 14 16 16 15 16 16 13 11 12 13 12 12
62 55 51 49 51 48 47 45 43 39 37 36 35 32 31 32 25 24 20 21 20 17 15 16 16 15 16 16 15 15 15 16 16 16 16 17 14 14 13 16 16 16 16
50 58 53 56 54 46 42 42 40 38 37 36 34 34 35 29 26 24 20 22 21 20 9 15 18 16 17 18 17 16 16 16 16 16 17 16 16 14 14 13 15 17 17
48 45 52 48 47 43 42 42 40 37 38 36 35 36 36 30 29 25 21 24 24 19 12 18 21 19 20 20 19 17 17 17 17 17 16 17 17 17 16 16 17 17 16
32 33 38 43 43 42 41 41 39 39 39 38 38 38 33 32 30 28 23 19 21 19 15 20 22 21 20 20 19 18 17 17 16 17 18 17 18 17 16 16 16 14 14
31 37 40 44 43 42 39 40 39 40 40 39 40 40 34 34 33 30 27 22 22 21 15 24 24 22 21 21 20 18 17 16 15 16 17 16 15 16 17 15 13 13 14
29 31 33 36 39 38 38 39 39 39 39 39 36 39 37 36 33 31 29 26 25 26 25 25 27 24 21 20 20 19 17 16 15 15 16 15 13 11 12 14 16 14 13
26 28 32 33 32 35 36 36 38 38 37 38 40 44 40 41 36 32 32 28 30 26 23 23 27 26 21 21 21 19 18 16 15 15 14 14 13 13 14 15 15 15 16
8 34 21 25 27 26 28 32 36 39 40 44 48 50 47 41 38 37 36 35 27 25 25 28 28 26 20 21 20 20 19 17 15 14 12 11 12 12 14 15 16 15 16
10 12 14 31 32 33 35 34 38 44 48 50 51 49 47 47 46 40 41 33 28 27 29 27 26 22 22 21 22 21 20 18 16 14 13 10 11 12 13 13 14 15 15
6 7 7 10 10 12 10 14 22 23 24 31 38 47 47 44 45 43 35 25 27 28 28 28 24 23 23 22 21 19 19 18 17 15 14 12 9 11 12 13 14 15 15
4 4 6 6 7 10 7 7 9 13 12 15 18 23 26 26 24 20 18 21 26 25 27 25 22 21 21 21 21 20 20 18 17 16 14 12 10 9 10 12 15 15 16
7 5 3 2 1 1 5 9 10 7 10 11 12 12 15 17 16 16 17 20 23 23 25 23 21 19 18 17 17 17 18 18 17 16 13 12 9 6 5 9 12 14 15
Wind_Direction
200 198 199 198 192 189 186 183 181 180 181 183 177 171 162 155 140 145 145 148 125 86 31 5 14 15 19 15 15 15 18 22 19 11 15 10 9 2 4 8 13 17 19
205 202 202 201 194 191 188 187 185 184 182 187 189 183 178 183 184 182 199 221 234 253 281 311 323 337 347 342 344 349 1 12 8 3 4 359 358 352 348 356 357 2 7
210 210 204 200 195 191 189 188 186 185 188 191 196 196 195 213 224 238 241 247 255 277 304 288 309 311 306 315 317 308 320 327 337 341 346 350 347 339 338 344 344 348 352
214 214 207 201 196 193 191 189 190 191 192 196 199 201 215 232 233 233 240 237 254 254 281 299 300 302 306 299 293 295 299 307 311 314 321 328 328 330 333 333 336 335 340
215 219 212 203 198 195 194 193 194 198 198 194 199 214 220 224 230 234 247 248 252 255 264 280 279 284 286 290 304 308 310 314 311 323 327 332 334 332 329 328 331 327 328
213 219 217 208 200 197 196 194 197 199 201 199 204 210 217 220 228 240 246 243 249 261 266 269 280 284 281 292 297 303 309 323 328 321 311 324 321 321 327 337 335 327 319
219 217 217 212 205 201 200 198 198 202 198 203 204 208 215 222 229 235 236 238 249 256 261 274 280 282 283 283 287 295 304 312 315 307 307 311 316 323 337 333 341 327 321
225 218 217 212 207 203 202 201 201 198 203 206 205 208 210 225 227 229 231 232 239 247 257 277 278 276 275 277 281 287 297 303 300 303 307 324 332 326 325 327 320 322 332
227 224 217 215 210 208 205 203 204 206 204 204 210 199 199 219 217 221 223 232 239 242 253 268 268 274 274 276 279 279 277 283 299 301 318 327 322 316 318 313 310 312 321
217 223 216 214 212 215 209 206 207 209 211 207 206 212 216 217 194 207 219 226 233 234 250 263 258 267 273 274 274 270 275 282 287 292 291 300 305 307 303 297 295 306 316
216 221 221 214 214 219 214 211 210 212 214 216 216 212 216 223 215 201 209 222 228 231 246 252 257 259 264 264 267 259 268 279 284 286 284 285 287 288 288 292 292 298 301
216 218 212 213 216 226 219 214 213 215 217 221 222 222 223 221 218 214 222 220 222 230 238 239 239 249 255 264 267 268 273 279 280 282 286 288 285 281 272 279 287 284 289
219 220 218 211 215 220 221 217 216 218 221 223 221 225 229 232 233 236 234 229 215 228 225 232 237 254 252 262 264 268 267 273 284 288 288 285 287 274 262 272 274 288 282
212 215 213 209 215 218 222 218 219 223 223 224 226 228 229 228 227 228 241 230 213 220 220 236 247 248 253 251 255 258 273 282 285 286 284 289 286 268 260 269 268 273 285
215 213 211 211 213 218 217 216 220 225 225 225 226 225 225 228 220 232 229 233 224 214 219 242 249 251 251 252 253 269 285 288 283 283 283 286 287 258 254 258 271 272 278
195 205 215 212 211 211 214 216 223 227 224 224 225 226 228 221 224 225 225 226 232 227 204 243 248 249 253 256 265 279 283 285 286 285 278 272 271 260 249 255 256 269 285
200 207 209 215 216 211 216 222 226 226 222 224 227 229 230 219 223 220 223 224 235 234 250 246 243 246 251 255 268 274 280 286 287 286 281 271 263 262 252 258 270 274 286
204 211 221 226 222 217 221 223 225 224 223 226 227 229 225 224 227 223 214 220 232 240 247 247 246 244 248 258 263 271 279 281 283 284 284 277 266 260 260 255 264 276 285
208 217 221 217 218 223 224 226 226 227 228 232 231 229 222 223 223 223 221 214 226 239 246 249 249 243 247 252 262 271 272 282 287 285 282 277 271 261 258 257 262 273 280
213 217 221 221 223 228 231 228 230 232 233 234 239 241 229 227 228 226 225 231 232 237 233 230 238 242 244 254 262 265 274 279 279 283 286 278 270 259 257 258 258 261 266
208 218 223 226 229 233 234 234 236 236 236 238 240 240 232 232 230 233 234 237 239 228 231 237 240 242 245 251 258 267 272 275 277 280 284 275 260 246 248 252 256 256 258
217 214 204 218 224 228 233 240 243 246 248 242 244 241 233 229 230 231 236 237 226 238 240 240 237 242 252 255 262 266 270 271 268 269 271 275 260 250 244 247 252 258 258
177 196 196 224 237 244 245 242 244 252 252 250 241 235 232 236 232 232 240 232 235 231 233 237 240 247 253 257 259 261 262 262 265 264 272 270 257 248 250 252 256 250 246
144 160 178 193 197 214 235 245 241 246 251 250 241 233 230 237 237 232 222 217 226 227 231 237 242 247 253 258 259 256 255 257 259 261 264 272 259 247 251 252 253 251 247
113 113 151 181 233 231 249 262 260 264 254 247 248 250 250 239 226 221 232 236 236 237 237 239 246 250 254 254 253 253 253 253 254 255 253 257 262 257 249 253 252 246 246
103 94 72 61 63 269 267 273 279 288 277 257 245 227 232 230 226 234 230 234 244 248 244 246 251 252 254 251 249 244 242 247 248 254 253 250 262 273 294 273 262 259 254